User: anonymous   Login
Location: Unspecified
(0.0000°N, 0.0000°E)
Time: 11:26:55
(UTC+00:00)
Language:

Feng Yun - Orbit

View from above orbital plane
View from above orbital plane
View from above satellite
View from above satellite

Ground track
Ground track

The orbit data is extracted from the following two-line orbital elements,

1 24834U 97029A   21015.60791137 -.00000092  00000-0  00000-0 0  9993
2 24834  14.6608  19.9098 0096406 191.0209  24.5387  0.96050388 84393
Epoch (UTC): 15 January 2021 14:35:23
Eccentricity: 0.0096406
inclination: 14.6608°
perigee height: 36594 km
apogee height: 37431 km
right ascension of ascending node: 19.9098°
argument of perigee: 191.0209°
revolutions per day: 0.96050388
mean anomaly at epoch: 24.5387°
orbit number at epoch: 8439

The dashed part of the orbit path shows where the satellite is in the earth's shadow,  

DLR